SBIRS GEO-1 (USA 230)

Last updated on Tue Sep 16 2025 00:02:47 GMT+0000 (Coordinated Universal Time)

1 37481U 11019A 25258.59886939 .00000084 00000+0 00000+0 0 9994 2 37481 3.9329 52.6742 0001794 125.7700 83.7664 1.00272339 52648
UTC large
Height (km)
Speed (km/s)
/
Latitude / Longitude
Inclination (degrees)
Orbital Period (minutes)
Azimuth
Elevation
Range (km)
Doppler Factor

Next 0 passes for location: London (51.5072 / 0.1276)

Sorry there are no passes over London.